FFT1406 KONT-KDFW

Flight info

Callsign FFT1406
Flight time N/A
Altitude 35000
Route RAJEE4 AVRRY LANCY J78 ABQ J72 TXO TURKI VKTRY2
Aircraft A21N/M-SDE2E3FGHIJ1RWXY/LB1

Departure

Time N/A
Airport Ontario International Airport (KONT)

Arrival

Time 2026-05-04 23:23
Airport Dallas Fort Worth International Airport (KDFW)
Time Latitude Longitude Altitude Speed Heading
2026-05-04 23:22 32.89521 -97.06591 616 ft 24 kts 109°
2026-05-04 23:23 32.89462 -97.06394 606 ft 26 kts 110°
2026-05-04 23:23 32.89341 -97.06228 616 ft 28 kts 142°
2026-05-04 23:23 32.89185 -97.06079 604 ft 30 kts 139°
2026-05-04 23:23 32.89064 -97.05950 604 ft 19 kts 138°
2026-05-04 23:24 32.88963 -97.05842 604 ft 21 kts 138°
2026-05-04 23:24 32.88851 -97.05723 607 ft 22 kts 138°
2026-05-04 23:24 32.88731 -97.05594 604 ft 24 kts 129°
2026-05-04 23:24 32.88650 -97.05411 604 ft 26 kts 110°
2026-05-04 23:25 32.88614 -97.05193 604 ft 28 kts 90°
2026-05-04 23:25 32.88613 -97.04957 604 ft 30 kts 92°
2026-05-04 23:25 32.88608 -97.04707 604 ft 28 kts 90°
2026-05-04 23:25 32.88607 -97.04487 604 ft 21 kts 90°
2026-05-04 23:26 32.88606 -97.04303 604 ft 23 kts 90°
2026-05-04 23:26 32.88605 -97.04106 604 ft 25 kts 90°
2026-05-04 23:26 32.88604 -97.03904 604 ft 19 kts 90°
2026-05-04 23:26 32.88602 -97.03737 604 ft 21 kts 90°
2026-05-04 23:27 32.88601 -97.03554 604 ft 23 kts 90°
2026-05-04 23:27 32.88600 -97.03395 603 ft 16 kts 91°
2026-05-04 23:27 32.88681 -97.03320 604 ft 19 kts 358°
2026-05-04 23:27 32.88817 -97.03322 603 ft 21 kts
2026-05-04 23:28 32.88966 -97.03318 603 ft 22 kts
2026-05-04 23:28 32.89094 -97.03333 604 ft 12 kts 317°
2026-05-04 23:28 32.89135 -97.03427 604 ft 11 kts 295°
2026-05-04 23:28 32.89176 -97.03466 604 ft 8 kts 337°
2026-05-04 23:29 32.89238 -97.03498 603 ft 11 kts 332°
2026-05-04 23:29 32.89284 -97.03548 604 ft 7 kts 287°
2026-05-04 23:29 32.89271 -97.03584 604 ft 3 kts 234°
2026-05-04 23:29 32.89257 -97.03606 604 ft 2 kts 234°
2026-05-04 23:30 32.89257 -97.03607 604 ft 0 kts 234°